Location: *
(48.8667°N, 2.3331°E)
Time: 01:53:20
(UTC+00:00)

STARLINK-1224 - Pass Details

Date: 09 April 2020
Orbit: 549 x 551 km, 53.0° (Epoch: 03 June)

Event Time Altitude Azimuth Distance (km) Brightness Sun altitude
Rises 20:40:15 0° 295° (WNW) 2,730 8.6 -19.4°
Reaches altitude 10° 20:42:31 10° 291° (WNW) 1,833 7.4 -19.7°
Maximum altitude 20:46:37 58° 212° (SSW) 645 3.8 -20.2°
Enters shadow 20:47:13 52° 174° (S) 694 3.8 -20.2°
